[[{"header":{"parameterUnit":"m.s-1","parameterCategory":1,"la1":30.2992,"la2":30.254,"lo1":-89.0895,"lo2":-89.0443,"dy":0.0025,"dx":0.0025,"nx":19,"ny":19,"refTime":"2026-03-25T09:00:00:Z","depth":0,"parameterNumber":2,"parameterNumberName":"U-component_of_WINDS"},"data":[0,0,0,-0.5681,-0.5683,-0.5783,-0.5784,-0.5913,-0.5914,0,0,0,0,0,0,0,0,0,0,0,-0.5651,-0.5651,-0.5681,-0.5683,-0.5783,-0.5784,-0.5913,-0.5914,0,0,0,0,0,0,0,0,0,0,0,-0.565,-0.5651,-0.5652,-0.5684,-0.5783,-0.5784,-0.5913,-0.5837,0,0,0,0,0,0,0,0,0,0,-0.574,-0.571,-0.5651,-0.5652,-0.5684,-0.5783,-0.5784,-0.5833,-0.5842,-0.5868,0,-0.5889,0,-0.5904,-0.5923,-0.5923,0,0,0,-0.5684,-0.5703,-0.5731,-0.5652,-0.5685,-0.5783,-0.5738,-0.5838,-0.5847,-0.5879,-0.5891,-0.5896,-0.5906,-0.5924,-0.5924,-0.6066,-0.6067,0,0,-0.5679,-0.5669,-0.5724,-0.5737,-0.572,-0.5735,-0.5741,-0.5844,-0.5857,-0.5891,-0.5899,-0.5908,-0.5924,-0.5925,-0.6066,-0.6067,0,0,0,-0.5662,-0.5665,-0.569,-0.5732,-0.5749,-0.5738,-0.5745,-0.5853,-0.5861,-0.59,-0.5909,-0.5925,-0.5927,-0.6065,-0.6066,-0.6085,0,0,0,-0.5659,-0.5655,-0.5687,-0.5682,-0.5747,-0.5802,-0.5752,-0.5854,-0.5866,-0.5909,-0.5925,-0.5928,-0.6065,-0.6066,-0.6083,-0.6096,0,0,0,-0.5644,-0.5653,-0.5667,-0.5681,-0.5723,-0.58,-0.5815,-0.5857,-0.5872,-0.5923,-0.5928,-0.6064,-0.6066,-0.6082,-0.6093,-0.613,0,0,0,-0.5626,-0.5684,-0.5667,-0.5736,-0.5723,-0.5811,-0.5815,-0.5882,-0.5928,-0.5926,-0.6065,-0.6066,-0.6081,-0.6092,-0.6128,-0.6159,-0.617,0,0,-0.5693,-0.5692,-0.5733,-0.5721,-0.5809,-0.5797,-0.5889,-0.5942,-0.5958,-0.603,-0.6033,-0.6084,-0.6093,-0.613,-0.624,-0.625,0,0,0,-0.575,-0.578,-0.5805,-0.5848,-0.5889,-0.5926,-0.5966,-0.5986,-0.6047,-0.5992,-0.6108,-0.6114,-0.6135,-0.6151,-0.6158,-0.6178,-0.6073,-0.6073,-0.6072,-0.5831,-0.5846,-0.5914,-0.5942,-0.5983,-0.6024,-0.6059,-0.6093,-0.6098,-0.6125,-0.6146,-0.6211,-0.6229,-0.6235,-0.6255,-0.6164,-0.6164,-0.6164,-0.6164,-0.593,-0.5974,-0.5977,-0.6044,-0.6061,-0.6119,-0.616,-0.6161,-0.6218,-0.6197,-0.6217,-0.6191,-0.6244,-0.6262,-0.6166,-0.6166,-0.6165,-0.6165,-0.6165,-0.5984,-0.6007,-0.6029,-0.6092,-0.614,-0.6166,-0.622,-0.6234,-0.6247,-0.6267,-0.6291,-0.6291,-0.6292,-0.6278,-0.6278,-0.6278,-0.6278,-0.6278,-0.6279,-0.6031,-0.6055,-0.6098,-0.6146,-0.6175,-0.6215,-0.6256,-0.6286,-0.6323,-0.6328,-0.6329,-0.633,-0.6246,-0.6225,-0.6282,-0.6281,-0.6281,-0.6281,-0.628,-0.6125,-0.6106,-0.6172,-0.6201,-0.6258,-0.6304,-0.6321,-0.638,-0.6407,-0.6433,-0.6431,-0.6366,-0.6366,-0.636,-0.6342,-0.6427,-0.6427,-0.6427,-0.6427,-0.617,-0.6171,-0.6241,-0.6286,-0.6333,-0.6354,-0.643,-0.6463,-0.6494,-0.6512,-0.6502,-0.648,-0.6473,-0.6477,-0.6468,-0.6452,-0.6562,-0.6562,-0.6562,-0.6228,-0.6234,-0.6295,-0.6324,-0.637,-0.6409,-0.6481,-0.6534,-0.6566,-0.6568,-0.6526,-0.652,-0.6485,-0.6472,-0.6472,-0.6459,-0.6429,0,0]},{"header":{"parameterUnit":"m.s-1","parameterCategory":1,"la1":30.2992,"la2":30.254,"lo1":-89.0895,"lo2":-89.0443,"dy":0.0025,"dx":0.0025,"nx":19,"ny":19,"refTime":"2026-03-25T09:00:00:Z","depth":0,"parameterNumber":3,"parameterNumberName":"V-component_of_WINDS"},"data":[0,0,0,-1.0998,-1.0997,-1.0939,-1.0939,-1.0862,-1.0862,0,0,0,0,0,0,0,0,0,0,0,-1.1014,-1.1014,-1.0998,-1.0997,-1.0939,-1.0939,-1.0862,-1.0862,0,0,0,0,0,0,0,0,0,0,0,-1.1015,-1.1014,-1.1013,-1.0997,-1.0939,-1.0939,-1.0863,-1.0907,0,0,0,0,0,0,0,0,0,0,-1.0963,-1.0978,-1.1014,-1.1013,-1.0996,-1.094,-1.0939,-1.0909,-1.0904,-1.0887,0,-1.0873,0,-1.0866,-1.0856,-1.0856,0,0,0,-1.0997,-1.0982,-1.0967,-1.1013,-1.0996,-1.094,-1.0965,-1.0906,-1.0901,-1.0881,-1.0872,-1.0869,-1.0865,-1.0856,-1.0855,-1.076,-1.0759,0,0,-1.1,-1.1003,-1.0971,-1.0964,-1.0974,-1.0967,-1.0964,-1.0903,-1.0893,-1.0872,-1.0868,-1.0864,-1.0855,-1.0855,-1.076,-1.0759,0,0,0,-1.1009,-1.1006,-1.0992,-1.0967,-1.0957,-1.0966,-1.0961,-1.0896,-1.0892,-1.0867,-1.0863,-1.0855,-1.0854,-1.0761,-1.076,-1.074,0,0,0,-1.1011,-1.1011,-1.0994,-1.0995,-1.0958,-1.0926,-1.0956,-1.0896,-1.0889,-1.0863,-1.0855,-1.0853,-1.0761,-1.076,-1.0741,-1.0729,0,0,0,-1.1018,-1.1012,-1.1003,-1.0995,-1.0971,-1.0927,-1.0919,-1.0894,-1.0886,-1.0856,-1.0853,-1.0761,-1.076,-1.0743,-1.0731,-1.0703,0,0,0,-1.1027,-1.0987,-1.1003,-1.0956,-1.0972,-1.0916,-1.0919,-1.0877,-1.0849,-1.0854,-1.0761,-1.076,-1.0743,-1.0733,-1.0705,-1.068,-1.067,0,0,-1.0978,-1.0981,-1.0953,-1.0966,-1.0908,-1.0924,-1.0862,-1.0833,-1.0827,-1.0782,-1.078,-1.0741,-1.0732,-1.0704,-1.0616,-1.0608,0,0,0,-1.0938,-1.0918,-1.0902,-1.0875,-1.0853,-1.0831,-1.0811,-1.08,-1.0762,-1.0805,-1.0724,-1.0718,-1.0702,-1.0689,-1.0683,-1.0668,-1.0755,-1.0755,-1.0755,-1.0872,-1.0867,-1.082,-1.0807,-1.0782,-1.0761,-1.0739,-1.072,-1.0723,-1.0703,-1.0689,-1.0637,-1.0623,-1.0618,-1.0602,-1.0677,-1.0677,-1.0677,-1.0677,-1.0798,-1.0768,-1.0772,-1.0728,-1.0722,-1.0684,-1.0662,-1.0665,-1.0628,-1.0647,-1.0633,-1.0653,-1.0609,-1.0595,-1.0675,-1.0675,-1.0676,-1.0676,-1.0676,-1.0754,-1.0738,-1.0726,-1.0686,-1.0656,-1.0644,-1.0608,-1.0604,-1.06,-1.0586,-1.057,-1.057,-1.0568,-1.0579,-1.0579,-1.0578,-1.0578,-1.0578,-1.0578,-1.0711,-1.0698,-1.0669,-1.064,-1.0622,-1.0597,-1.0576,-1.0557,-1.0536,-1.0535,-1.0535,-1.0538,-1.0607,-1.0623,-1.0575,-1.0576,-1.0576,-1.0576,-1.0576,-1.0636,-1.0652,-1.0607,-1.0588,-1.0554,-1.0523,-1.0519,-1.0481,-1.0465,-1.0447,-1.0453,-1.0506,-1.0508,-1.0513,-1.0527,-1.0456,-1.0456,-1.0456,-1.0456,-1.0597,-1.0598,-1.055,-1.052,-1.0491,-1.0483,-1.0429,-1.0412,-1.0396,-1.0385,-1.0395,-1.0413,-1.0419,-1.0418,-1.0425,-1.0437,-1.0346,-1.0346,-1.0346,-1.0549,-1.0547,-1.0503,-1.0489,-1.0461,-1.0437,-1.0387,-1.0351,-1.0337,-1.0341,-1.0376,-1.0381,-1.041,-1.042,-1.0424,-1.0435,-1.0458,0,0]}]]